Погода в Улцине

Черногория     41°55′44″N   19°12′50″E
темп.,
°C
ветер,
м/с
пор.,
м/с
влажн.,
%
обл.,
%
осадки,
мм/ч
давл.,
гПа
погр.,
м
15 апреля, чт
чт1523:00+8св237665 0.1 1020212
02:00+8св337894 0.2 1020167
05:00+6св347883 0.1 1020197
08:00+7св446618 0.1 1020207
11:00+11св22523 0.0 1020959
14:00+12зюз32473 0.0 10191337
17:00+12з43500 0.0 1018878
20:00+8сз4463100 0.0 1019175
16 апреля, пт
пт1623:00+8с2266100 0.0 101986
02:00+7ссв3371100 0.0 101978
05:00+6св4576100 0.0 1018117
08:00+8св456521 0.0 1018234
11:00+12св4450100 0.0 1017617
14:00+14в3346100 0.0 1016917
17:00+12св3457100 0.0 1015453
20:00+9св3470100 0.3 1015141
17 апреля, сб
сб1723:00+9ссв4574100 0.0 1014216
02:00+7св4589100 2.1 1012213
05:00+7св6891100 0.6 1010197
08:00+8св3489100 1.6 1009179
11:00+9св3485100 0.1 1009196
14:00+9св3388100 1.1 1008181
17:00+8св3490100 1.1 1007168
20:00+8св2396100 9.3 1009149
18 апреля, вс
вс1823:00+8св4595100 7.4 1010168
02:00+9сз1191100 7.8 101178
05:00+9ю0193100 0.2 101277
08:00+9ю119197 0.3 1014139
11:00+10ю128451 0.1 1016405
14:00+13зюз227354 0.5 1015902
17:00+13з226586 0.1 1014859
20:00+11с2280100 0.1 101481
19 апреля, пн
пн1923:00+10с227968 0.0 101444
02:00+9ссв328391 0.0 101350
05:00+8ссв337694 0.0 101171
08:00+11св4470100 0.0 1009150
11:00+15ссв225597 0.0 1008441
14:00+17с2353100 0.0 1004958
17:00+15ссз2364100 0.0 1004638
20:00+12св2277100 0.0 100543